When you browse on this site, cookies collect data to enhance your experience and personalize the content and advertising you see.
Visit our Privacy Policy to learn more. By continuing to use the site, you agree to this use of cookies and data.
  • en France
  • Liste des pays
  • À 7 jours
  • Température de l'eau
  • Carte météo
  • Widgets météo
  • user-avatar
    Se connecter

    Météo par heure à Wildwood

    Ce jour, 4 Juin, Jeudi

    Heure Température Précipitation Vent Pression Humidité
    00:00 +24°C° 0 mm 2 m/s 737 mmHg 88%
    01:00 +23°C° 0 mm 2 m/s 737 mmHg 90%
    02:00 +23°C° 0 mm 2 m/s 736 mmHg 91%
    03:00 +21°C° 0 mm 2 m/s 736 mmHg 92%
    04:00 +23°C° 0.2 mm 2 m/s 736 mmHg 92%
    05:00 +23°C° 0.2 mm 2 m/s 737 mmHg 91%
    06:00 +23°C° 0.2 mm 2 m/s 737 mmHg 90%
    07:00 +24°C° 0.9 mm 2 m/s 737 mmHg 90%
    08:00 +24°C° 0.9 mm 2 m/s 737 mmHg 89%
    09:00 +25°C° 0.9 mm 2 m/s 737 mmHg 88%
    10:00 +27°C° 0 mm 2 m/s 737 mmHg 79%
    11:00 +29°C° 0 mm 2 m/s 737 mmHg 70%
    12:00 +31°C° 0 mm 2 m/s 737 mmHg 60%
    13:00 +32°C° 0.3 mm 2 m/s 736 mmHg 60%
    14:00 +32°C° 0.3 mm 2 m/s 736 mmHg 59%
    15:00 +34°C° 0.3 mm 2 m/s 736 mmHg 59%
    16:00 +31°C° 0.7 mm 2 m/s 736 mmHg 65%
    17:00 +30°C° 0.7 mm 2 m/s 736 mmHg 71%
    18:00 +29°C° 0.7 mm 1 m/s 736 mmHg 77%
    19:00 +28°C° 0 mm 1 m/s 736 mmHg 80%
    20:00 +27°C° 0 mm 1 m/s 736 mmHg 82%
    21:00 +24°C° 0 mm 0 m/s 736 mmHg 84%
    22:00 +25°C° 0.4 mm 1 m/s 736 mmHg 86%
    23:00 +25°C° 0.4 mm 1 m/s 736 mmHg 88%

    Demain, 5 Juin, Vendredi

    Heure Température Précipitation Vent Pression Humidité
    00:00 +24°C° 0.4 mm 2 m/s 736 mmHg 89%
    01:00 +24°C° 0.2 mm 2 m/s 736 mmHg 90%
    02:00 +24°C° 0.2 mm 2 m/s 736 mmHg 91%
    03:00 +23°C° 0.2 mm 2 m/s 737 mmHg 92%
    04:00 +24°C° 0 mm 2 m/s 737 mmHg 92%
    05:00 +24°C° 0 mm 2 m/s 737 mmHg 93%
    06:00 +24°C° 0 mm 2 m/s 737 mmHg 93%
    07:00 +26°C° 0.3 mm 2 m/s 737 mmHg 88%
    08:00 +28°C° 0.3 mm 1 m/s 738 mmHg 83%
    09:00 +30°C° 0.3 mm 1 m/s 738 mmHg 78%
    10:00 +32°C° 0.1 mm 1 m/s 738 mmHg 67%
    11:00 +34°C° 0.1 mm 1 m/s 738 mmHg 56%
    12:00 +37°C° 0.1 mm 2 m/s 738 mmHg 44%
    13:00 +37°C° 0 mm 2 m/s 738 mmHg 44%
    14:00 +37°C° 0 mm 2 m/s 738 mmHg 45%
    15:00 +37°C° 0 mm 2 m/s 738 mmHg 45%
    16:00 +36°C° 0 mm 2 m/s 738 mmHg 50%
    17:00 +35°C° 0 mm 2 m/s 738 mmHg 56%
    18:00 +34°C° 0 mm 2 m/s 737 mmHg 62%
    19:00 +30°C° 3.5 mm 2 m/s 738 mmHg 69%
    20:00 +26°C° 3.5 mm 3 m/s 738 mmHg 76%
    21:00 +22°C° 3.5 mm 4 m/s 739 mmHg 83%
    22:00 +22°C° 1.4 mm 3 m/s 739 mmHg 83%
    23:00 +21°C° 1.4 mm 2 m/s 740 mmHg 84%

    Après-demain, 6 Juin, Samedi

    Heure Température Précipitation Vent Pression Humidité
    00:00 +22°C° 1.4 mm 1 m/s 740 mmHg 84%
    01:00 +22°C° 0 mm 1 m/s 740 mmHg 85%
    02:00 +22°C° 0 mm 1 m/s 740 mmHg 85%
    03:00 +21°C° 0 mm 1 m/s 740 mmHg 86%
    04:00 +21°C° 0 mm 2 m/s 740 mmHg 87%
    05:00 +21°C° 0 mm 2 m/s 741 mmHg 89%
    06:00 +21°C° 0 mm 2 m/s 741 mmHg 90%
    07:00 +24°C° 0 mm 3 m/s 742 mmHg 81%
    08:00 +25°C° 0 mm 3 m/s 742 mmHg 73%
    09:00 +27°C° 0 mm 3 m/s 742 mmHg 64%
    10:00 +28°C° 0 mm 3 m/s 742 mmHg 61%
    11:00 +29°C° 0 mm 3 m/s 742 mmHg 59%
    12:00 +29°C° 0 mm 4 m/s 742 mmHg 56%
    13:00 +30°C° 0 mm 4 m/s 741 mmHg 55%
    14:00 +30°C° 0 mm 3 m/s 741 mmHg 54%
    15:00 +30°C° 0 mm 3 m/s 740 mmHg 53%
    16:00 +29°C° 0 mm 3 m/s 740 mmHg 57%
    17:00 +28°C° 0 mm 3 m/s 740 mmHg 62%
    18:00 +27°C° 0 mm 3 m/s 740 mmHg 66%
    19:00 +26°C° 0 mm 3 m/s 740 mmHg 68%
    20:00 +24°C° 0 mm 3 m/s 740 mmHg 71%
    21:00 +22°C° 0 mm 3 m/s 740 mmHg 73%
    22:00 +21°C° 0 mm 2 m/s 740 mmHg 74%
    23:00 +21°C° 0 mm 2 m/s 740 mmHg 76%

    7 Juin, Dimanche

    Heure Température Précipitation Vent Pression Humidité
    00:00 +20°C° 0 mm 2 m/s 741 mmHg 78%
    01:00 +19°C° 0 mm 2 m/s 741 mmHg 79%
    02:00 +19°C° 0 mm 3 m/s 741 mmHg 79%
    03:00 +18°C° 0 mm 3 m/s 741 mmHg 80%
    04:00 +18°C° 0 mm 3 m/s 741 mmHg 77%
    05:00 +18°C° 0 mm 3 m/s 741 mmHg 75%
    06:00 +18°C° 0 mm 3 m/s 741 mmHg 72%
    07:00 +19°C° 0 mm 4 m/s 742 mmHg 66%
    08:00 +21°C° 0 mm 4 m/s 742 mmHg 61%
    09:00 +22°C° 0 mm 4 m/s 742 mmHg 55%
    10:00 +25°C° 0 mm 4 m/s 742 mmHg 53%
    11:00 +26°C° 0 mm 3 m/s 741 mmHg 50%
    12:00 +28°C° 0 mm 3 m/s 741 mmHg 48%
    13:00 +28°C° 0 mm 3 m/s 741 mmHg 48%
    14:00 +29°C° 0 mm 3 m/s 740 mmHg 48%
    15:00 +29°C° 0 mm 4 m/s 740 mmHg 48%
    16:00 +28°C° 0 mm 3 m/s 740 mmHg 54%
    17:00 +27°C° 0 mm 3 m/s 740 mmHg 59%
    18:00 +26°C° 0 mm 3 m/s 740 mmHg 64%
    19:00 +25°C° 0 mm 3 m/s 740 mmHg 68%
    20:00 +24°C° 0 mm 3 m/s 740 mmHg 72%
    21:00 +21°C° 0 mm 3 m/s 740 mmHg 76%
    22:00 +21°C° 0 mm 3 m/s 740 mmHg 77%
    23:00 +20°C° 0 mm 3 m/s 740 mmHg 79%

    8 Juin, Lundi

    Heure Température Précipitation Vent Pression Humidité
    00:00 +20°C° 0 mm 3 m/s 740 mmHg 81%
    01:00 +19°C° 0 mm 3 m/s 740 mmHg 82%
    02:00 +19°C° 0 mm 3 m/s 740 mmHg 84%
    03:00 +19°C° 0 mm 3 m/s 740 mmHg 85%
    04:00 +19°C° 0 mm 3 m/s 740 mmHg 84%
    05:00 +19°C° 0 mm 3 m/s 740 mmHg 83%
    06:00 +19°C° 0 mm 3 m/s 740 mmHg 82%
    07:00 +20°C° 0 mm 3 m/s 740 mmHg 77%
    08:00 +22°C° 0 mm 4 m/s 740 mmHg 71%
    09:00 +23°C° 0 mm 4 m/s 740 mmHg 65%
    10:00 +25°C° 0 mm 4 m/s 740 mmHg 62%
    11:00 +27°C° 0 mm 4 m/s 740 mmHg 59%
    12:00 +29°C° 0 mm 4 m/s 740 mmHg 55%
    13:00 +29°C° 0 mm 4 m/s 739 mmHg 55%
    14:00 +30°C° 0 mm 4 m/s 739 mmHg 54%
    15:00 +30°C° 0 mm 4 m/s 738 mmHg 53%
    16:00 +29°C° 0 mm 4 m/s 738 mmHg 58%
    17:00 +28°C° 0 mm 4 m/s 738 mmHg 62%
    18:00 +27°C° 0 mm 4 m/s 737 mmHg 67%
    19:00 +26°C° 0 mm 4 m/s 737 mmHg 68%
    20:00 +25°C° 0 mm 4 m/s 737 mmHg 69%
    21:00 +23°C° 0 mm 4 m/s 737 mmHg 70%
    22:00 +23°C° 0 mm 4 m/s 737 mmHg 73%
    23:00 +22°C° 0 mm 4 m/s 737 mmHg 75%

    9 Juin, Mardi

    Heure Température Précipitation Vent Pression Humidité
    00:00 +22°C° 0 mm 3 m/s 736 mmHg 77%
    01:00 +22°C° 0 mm 3 m/s 736 mmHg 81%
    02:00 +22°C° 0 mm 3 m/s 736 mmHg 84%
    03:00 +22°C° 0 mm 3 m/s 735 mmHg 87%
    04:00 +23°C° 0 mm 4 m/s 735 mmHg 88%
    05:00 +23°C° 0 mm 4 m/s 735 mmHg 89%
    06:00 +25°C° 0 mm 4 m/s 735 mmHg 90%
    07:00 +25°C° 0 mm 4 m/s 735 mmHg 88%
    08:00 +26°C° 0 mm 4 m/s 735 mmHg 85%
    09:00 +26°C° 0 mm 4 m/s 734 mmHg 83%
    10:00 +27°C° 0.1 mm 5 m/s 734 mmHg 82%
    11:00 +27°C° 0.1 mm 5 m/s 734 mmHg 81%
    12:00 +27°C° 0.1 mm 5 m/s 734 mmHg 80%
    13:00 +27°C° 1.2 mm 5 m/s 733 mmHg 83%
    14:00 +26°C° 1.2 mm 5 m/s 732 mmHg 87%
    15:00 +25°C° 1.2 mm 5 m/s 732 mmHg 91%
    16:00 +25°C° 0.2 mm 5 m/s 732 mmHg 91%
    17:00 +25°C° 0.2 mm 4 m/s 731 mmHg 91%
    18:00 +26°C° 0.2 mm 4 m/s 731 mmHg 90%
    19:00 +25°C° 0.4 mm 3 m/s 731 mmHg 91%
    20:00 +25°C° 0.4 mm 3 m/s 732 mmHg 93%
    21:00 +25°C° 0.4 mm 3 m/s 732 mmHg 94%
    22:00 +23°C° 0.4 mm 4 m/s 732 mmHg 94%
    23:00 +23°C° 0.4 mm 4 m/s 732 mmHg 93%
    Voir plus